Location: Friaudour
(46.0460°N, 1.2873°E)
Time: 03:25:46
(UTC+00:00)

Cosmos 1184 Rocket - Pass Details

Date: 14 July 2020
Orbit: 408 x 421 km, 81.2° (Epoch: 06 August)

Event Time Altitude Azimuth Distance (km) Brightness Sun altitude
Exits shadow 00:49:50 48° 73° (ENE) 553 3.4 -21.4°
Drops below altitude 10° 00:52:41 10° 21° (NNE) 1,503 6.7 -21.3°
Sets 00:54:46 0° 16° (NNE) 2,375 8.1 -21.2°
